Simultaneous Nadir Overpasses (SNOs) Predictions

Prediction of SNOs between FY3D and METOP-C Satellite Orbit:

Table of predicted SNOs for the next 14.0 days since TLE Epoch: 1/30/2021
Index Date (FY3D) Time (FY3D) Lat,Lon (FY3D) SZA (FY3D ) Date (METOP-C) Time (METOP-C) Lat,Lon (METOP-C) SZA (METOP-C ) Distance(km) Time Diff (sec)
1 02/10/2021 21:41:14 -73.92, 26.10 91.77 02/10/2021 21:42:20 -73.88, 29.22 91.98 96.20 66
2 02/10/2021 22:31:55 73.70,-166.04 87.97 02/10/2021 22:33:03 73.67,-163.95 87.82 65.37 68
3 02/10/2021 23:22:38 -73.68, 1.33 92.07 02/10/2021 23:23:47 -73.61, 3.25 92.24 60.58 69
4 02/11/2021 00:13:19 73.45, 169.17 87.67 02/11/2021 00:14:30 73.40, 170.09 87.56 29.80 71
5 02/11/2021 01:04:01 -73.38, -23.36 92.42 02/11/2021 01:05:14 -73.35, -22.71 92.51 21.05 73
6 02/11/2021 01:54:43 73.20, 144.36 87.37 02/11/2021 01:55:55 73.23, 144.36 87.38 2.64 72
7 02/11/2021 02:45:27 -73.23, -48.39 92.61 02/11/2021 02:46:38 -73.22, -48.31 92.64 2.59 71
8 02/11/2021 03:36:12 73.20, 118.99 87.35 02/11/2021 03:37:17 73.20, 118.98 87.34 0.38 65
9 02/11/2021 04:26:55 -73.18, -73.65 92.69 02/11/2021 04:28:00 -73.20, -73.70 92.68 2.83 65
10 02/11/2021 05:17:41 73.20, 93.62 87.33 02/11/2021 05:18:39 73.18, 93.59 87.30 2.21 58
11 02/11/2021 06:08:24 -73.18, -99.02 92.71 02/11/2021 06:09:22 -73.18, -99.08 92.72 1.98 58
12 02/11/2021 06:59:10 73.20, 68.24 87.31 02/11/2021 07:00:00 73.21, 68.32 87.30 2.68 50
13 02/11/2021 07:49:53 -73.18,-124.39 92.73 02/11/2021 07:50:44 -73.16,-124.47 92.76 3.32 51
14 02/11/2021 08:40:39 73.20, 42.87 87.28 02/11/2021 08:41:22 73.19, 42.93 87.26 2.34 43
15 02/11/2021 09:31:22 -73.18,-149.77 92.76 02/11/2021 09:32:05 -73.19,-149.74 92.76 1.19 43
16 02/11/2021 10:22:07 73.15, 17.61 87.21 02/11/2021 10:22:44 73.17, 17.55 87.22 2.83 37
17 02/11/2021 11:12:51 -73.18,-175.14 92.78 02/11/2021 11:13:27 -73.17,-175.13 92.80 1.40 36
18 02/11/2021 12:03:36 73.15, -7.76 87.18 02/11/2021 12:04:06 73.15, -7.84 87.18 2.47 30
19 02/11/2021 12:54:20 -73.19, 159.49 92.80 02/11/2021 12:54:49 -73.15, 159.49 92.84 3.72 29
20 02/11/2021 13:45:05 73.16, -33.13 87.16 02/11/2021 13:45:27 73.18, -33.11 87.18 2.93 22
21 02/11/2021 14:35:49 -73.19, 134.12 92.82 02/11/2021 14:36:10 -73.18, 134.21 92.84 2.98 21
22 02/11/2021 15:26:34 73.16, -58.50 87.14 02/11/2021 15:26:49 73.16, -58.50 87.14 0.55 15
23 02/11/2021 16:17:17 -73.14, 108.86 92.90 02/11/2021 16:17:32 -73.16, 108.83 92.88 2.95 15
24 02/11/2021 17:08:03 73.16, -83.87 87.11 02/11/2021 17:08:11 73.14, -83.88 87.10 1.89 8
25 02/11/2021 17:58:46 -73.14, 83.49 92.92 02/11/2021 17:58:54 -73.14, 83.44 92.92 1.52 8
26 02/11/2021 18:49:32 73.16,-109.25 87.09 02/11/2021 18:49:32 73.17,-109.16 87.10 3.23 0
27 02/11/2021 19:40:15 -73.14, 58.12 92.95 02/11/2021 19:40:16 -73.12, 58.06 92.96 2.69 1
28 02/11/2021 20:31:01 73.16,-134.62 87.07 02/11/2021 20:30:54 73.15,-134.54 87.06 2.71 7
29 02/11/2021 21:21:44 -73.14, 32.75 92.97 02/11/2021 21:21:37 -73.15, 32.78 92.96 1.80 7
30 02/11/2021 22:12:29 73.11,-159.88 86.99 02/11/2021 22:12:16 73.13,-159.92 87.02 2.65 13
31 02/11/2021 23:03:13 -73.14, 7.37 92.99 02/11/2021 23:02:59 -73.13, 7.40 93.00 1.28 14
32 02/11/2021 23:53:58 73.11, 174.75 86.97 02/11/2021 23:53:38 73.11, 174.69 86.97 1.91 20
33 02/12/2021 00:44:42 -73.14, -18.00 93.02 02/12/2021 00:44:21 -73.11, -17.99 93.04 3.37 21
34 02/12/2021 01:35:27 73.11, 149.38 86.95 02/12/2021 01:34:59 73.14, 149.42 86.98 3.29 28
35 02/12/2021 02:26:11 -73.14, -43.37 93.04 02/12/2021 02:25:42 -73.14, -43.26 93.04 3.47 29
36 02/12/2021 03:16:56 73.11, 124.01 86.92 02/12/2021 03:16:21 73.12, 124.03 86.94 1.05 35
37 02/12/2021 04:07:39 -73.09, -68.63 93.12 02/12/2021 04:07:04 -73.12, -68.65 93.08 3.16 35
38 02/12/2021 04:58:25 73.11, 98.63 86.90 02/12/2021 04:57:43 73.10, 98.65 86.89 1.73 42
39 02/12/2021 05:49:08 -73.09, -94.00 93.14 02/12/2021 05:48:26 -73.10, -94.03 93.12 1.20 42
40 02/12/2021 06:39:54 73.11, 73.26 86.88 02/12/2021 06:39:04 73.13, 73.37 86.90 3.81 50
41 02/12/2021 07:30:37 -73.09,-119.37 93.16 02/12/2021 07:29:48 -73.08,-119.41 93.16 2.05 49
42 02/12/2021 08:21:22 73.11, 47.89 86.85 02/12/2021 08:20:25 73.10, 47.99 86.85 3.17 57
43 02/12/2021 09:12:05 -73.09,-144.74 93.19 02/12/2021 09:11:08 -73.11,-144.69 93.16 2.44 57
44 02/12/2021 10:02:50 73.06, 22.63 86.78 02/12/2021 10:01:47 73.08, 22.60 86.81 2.56 63
45 02/12/2021 10:53:34 -73.09,-170.12 93.21 02/12/2021 10:52:30 -73.09,-170.07 93.20 1.50 64
46 02/12/2021 11:44:19 73.06, -2.74 86.75 02/12/2021 11:43:09 73.06, -2.78 86.77 1.33 70
47 02/12/2021 12:35:03 -73.09, 164.51 93.23 02/12/2021 12:33:52 -73.07, 164.54 93.24 3.14 71
48 02/12/2021 13:25:46 72.96, -27.90 86.62 02/12/2021 13:24:33 72.94, -28.38 86.64 16.09 73
49 02/12/2021 14:16:29 -72.94, 139.47 93.42 02/12/2021 14:15:16 -72.94, 138.94 93.37 17.12 73
50 02/12/2021 15:07:10 72.71, -52.73 86.32 02/12/2021 15:05:59 72.72, -54.19 86.42 48.22 71
51 02/12/2021 15:57:53 -72.69, 114.63 93.72 02/12/2021 15:56:42 -72.72, 113.14 93.59 49.40 71
52 02/12/2021 16:48:33 72.41, -77.48 85.97 02/12/2021 16:47:27 72.39, -80.19 86.11 91.17 66
53 02/12/2021 17:39:17 -72.44, 89.77 94.01 02/12/2021 17:38:10 -72.40, 87.14 93.90 88.63 67



Historial Predications of SNOs between FY3D and METOP-C
